KINEIS-4E

Last updated on Mon Oct 20 2025 00:02:42 GMT+0000 (Coordinated Universal Time)

1 63300U 25056A 25292.12166522 .00004434 00000+0 70633-3 0 9991 2 63300 97.9967 55.7045 0000995 55.3448 304.7854 14.72472478 31651
UTC large
Height (km)
Speed (km/s)
/
Latitude / Longitude
Inclination (degrees)
Orbital Period (minutes)
Azimuth
Elevation
Range (km)
Doppler Factor

Next 0 passes for location: London (51.5072 / 0.1276)

Sorry there are no passes over London.